Dewpoint
75 76 76 76 77 77 77 77 76 76 76 76 75 75 74 74 72 72 72 70 69 68 68 67 68 68 66 66 65 66 67 66 66 66 67 67 66 66 65 66 66 65 65 64 63 63 64 64 64 64 64 64 64 64 61 62 62 62 62 61 59 61 61 61 59 59 59 59 58 58 60 61 60 61 61 61 63 62 63 62 63 62 62 62 61
76 77 76 76 77 77 76 76 76 75 75 75 75 74 74 73 73 72 70 70 69 66 68 67 68 68 66 66 66 66 67 67 65 65 66 66 66 65 64 65 65 65 64 64 64 63 64 64 63 63 64 64 65 64 62 60 60 59 59 58 58 59 60 60 59 59 59 59 57 59 58 59 59 61 60 61 61 62 60 60 61 61 63 63 61
75 77 76 76 77 76 76 75 74 73 74 74 72 72 72 73 72 71 70 68 69 67 67 67 68 69 68 66 67 67 67 67 66 65 65 66 65 64 63 64 65 64 63 64 64 64 63 63 63 63 62 62 63 64 63 63 61 61 60 60 60 60 60 61 60 59 59 59 59 58 58 59 57 60 61 61 62 61 60 60 58 59 61 62 62
73 76 76 76 75 75 75 74 73 72 71 72 71 71 70 72 72 71 69 66 68 69 68 68 69 69 68 67 67 67 67 67 66 65 66 66 66 65 65 65 64 64 64 64 63 63 63 64 63 62 62 63 63 63 63 62 62 62 62 62 62 61 61 61 61 61 60 59 60 59 58 59 56 59 60 61 58 58 59 59 59 59 59 60 61
72 75 75 74 74 75 75 74 73 72 71 70 70 69 69 69 70 69 68 66 69 70 69 69 69 69 67 66 66 67 66 67 66 65 65 66 66 65 65 66 65 65 65 64 64 64 63 63 62 62 63 63 63 63 62 62 62 61 61 61 60 60 59 60 60 60 60 59 59 60 60 59 57 59 59 57 57 58 59 58 58 59 60 58 57
70 73 72 73 74 74 75 74 73 72 71 70 69 69 70 69 68 67 68 66 67 67 69 69 69 69 68 67 67 66 67 67 66 66 65 65 66 65 65 65 64 65 64 63 63 63 63 63 63 63 63 63 63 63 63 62 62 61 61 62 61 60 60 60 60 60 60 59 59 58 60 58 57 58 59 59 57 56 57 57 58 58 59 58 57
72 73 72 72 74 74 75 74 73 71 71 71 71 69 68 67 66 65 65 65 65 65 66 67 68 68 68 68 66 66 66 66 67 67 67 66 66 66 65 64 65 65 65 63 62 61 62 63 64 63 63 63 63 63 64 63 62 62 62 62 62 61 61 60 59 58 58 58 57 58 58 59 58 57 58 59 58 58 58 57 56 56 58 58 58
73 73 72 72 73 74 75 74 73 72 71 72 71 70 69 69 68 67 67 65 64 64 63 66 66 67 67 68 67 67 67 67 68 68 67 66 66 66 66 66 64 64 64 64 63 61 61 62 61 62 63 63 63 63 64 64 63 62 62 62 61 61 60 60 59 57 57 56 56 56 57 58 58 59 58 59 58 57 57 55 55 56 56 58 59
74 73 73 73 73 74 74 74 73 73 72 73 72 72 70 70 69 68 68 65 63 62 63 63 66 67 67 68 68 67 66 66 66 65 66 67 67 66 66 66 65 64 63 62 61 62 61 60 60 60 62 65 66 65 64 65 64 63 62 62 62 62 62 61 59 57 57 56 56 57 56 56 56 57 56 56 56 55 57 57 57 57 57 56 58
75 74 73 73 73 73 71 73 73 73 72 72 72 72 70 70 68 68 67 65 66 66 65 64 64 66 67 68 68 67 67 66 65 63 64 66 66 66 66 65 65 64 63 63 61 61 60 61 60 65 66 67 66 64 62 61 61 64 64 63 62 61 61 61 61 59 57 56 55 55 54 54 54 56 55 56 57 57 56 57 56 56 57 56 57
74 73 73 73 73 73 71 71 73 73 73 72 72 72 71 70 69 69 68 67 67 68 67 66 65 66 66 66 67 67 67 66 64 62 62 63 66 65 65 65 65 65 63 63 63 62 60 60 61 63 67 65 67 64 62 61 60 59 59 59 62 65 62 60 60 59 56 56 56 56 54 55 56 57 56 55 55 56 56 57 56 56 55 54 53
74 74 73 73 72 72 72 71 71 73 73 73 72 72 72 70 70 70 69 69 69 68 68 68 68 66 66 66 66 67 67 65 62 61 62 61 63 66 63 62 63 63 63 62 62 62 62 61 59 61 61 62 62 66 65 62 60 60 59 58 58 58 60 63 62 60 59 57 56 56 56 56 56 57 56 55 56 57 58 58 58 58 57 55 54
74 74 74 73 72 72 72 71 71 71 73 73 72 72 71 70 70 69 68 69 69 69 69 69 69 68 67 67 66 66 66 64 61 60 60 60 60 63 63 62 62 63 63 62 62 63 62 62 61 61 60 66 64 63 62 65 63 59 59 60 60 59 58 58 58 64 62 60 58 57 57 57 57 57 58 58 59 58 58 58 59 58 56 55 55
73 73 73 72 72 72 72 71 71 71 72 73 72 72 71 71 69 68 68 69 69 69 68 68 69 69 68 68 67 66 66 63 59 58 58 58 59 61 63 62 62 62 63 63 63 63 62 62 62 61 62 62 64 65 66 66 65 67 67 66 66 63 59 57 57 57 60 61 61 59 59 60 59 60 61 61 59 58 58 59 59 57 57 57 58
73 73 73 72 71 71 71 71 71 71 71 72 72 71 71 70 70 67 66 67 68 68 67 69 69 69 67 66 67 66 66 60 57 57 56 56 57 59 63 63 63 63 63 64 65 64 63 63 63 62 63 63 63 65 68 67 67 66 65 64 63 64 63 62 61 62 63 62 62 61 61 62 61 62 61 60 59 59 58 57 57 58 57 58 57
73 72 72 72 71 71 71 71 71 71 71 71 71 71 70 69 69 68 68 67 67 66 68 68 68 68 67 67 65 65 64 59 57 57 56 55 57 63 63 63 63 64 64 64 64 64 64 65 64 65 65 66 66 64 65 67 65 63 63 64 63 63 61 61 60 60 61 60 58 58 58 61 57 62 62 58 59 60 58 57 57 57 56 55 54
73 73 72 71 70 70 70 70 70 71 71 70 70 70 69 69 68 67 66 63 64 66 67 65 67 67 67 67 67 66 65 63 57 56 55 55 57 63 64 63 64 65 65 64 64 65 66 67 68 68 66 66 63 59 60 62 63 62 63 63 62 60 59 60 59 59 59 57 55 55 55 54 54 54 53 53 58 58 57 56 54 54 54 52 52
73 73 72 71 70 70 70 70 70 70 70 71 70 70 70 69 68 67 64 64 64 64 67 68 68 67 65 66 64 64 65 62 55 54 54 55 59 64 64 65 66 66 65 65 65 65 65 66 66 66 64 63 60 58 58 62 63 62 63 63 62 61 61 60 60 64 57 56 56 56 55 55 55 55 54 54 53 54 58 55 54 53 52 52 50
73 73 72 71 70 70 70 71 70 70 70 70 70 70 69 68 68 68 67 66 64 67 66 65 66 67 66 66 68 65 64 61 54 53 54 54 60 65 65 65 65 65 64 64 65 65 66 66 64 62 63 63 58 57 56 60 63 62 63 62 61 61 60 61 59 58 59 60 61 61 61 58 61 62 61 57 56 56 58 57 56 57 53 51 49
74 74 73 71 70 70 71 71 71 70 71 70 70 68 68 67 66 66 66 63 62 64 64 63 66 65 66 65 64 65 65 66 69 54 52 53 56 65 66 65 64 64 64 63 63 65 65 67 65 58 57 56 56 53 53 54 62 62 61 60 60 60 61 61 60 59 60 57 57 57 58 59 58 58 58 57 58 62 60 58 54 53 51 48 47
74 73 72 70 70 70 70 70 70 70 70 70 69 67 67 66 66 68 67 64 64 65 66 66 66 65 65 65 68 67 64 66 71 53 52 52 55 58 66 66 65 65 64 63 62 62 63 63 64 59 55 54 53 52 50 51 55 63 62 60 62 61 59 59 59 57 58 58 58 57 57 58 57 55 55 55 53 52 51 52 50 50 48 47 45
73 72 71 70 70 70 70 70 70 70 70 70 69 67 68 68 67 66 66 66 66 66 67 66 66 65 66 68 65 66 68 67 66 57 52 52 52 54 64 65 65 65 64 63 61 61 61 61 62 61 54 53 52 50 48 49 50 60 64 51 51 53 60 59 58 57 56 56 56 56 56 55 53 53 51 49 47 48 48 48 48 47 46 44 45
72 72 71 70 71 70 70 70 70 70 69 70 69 67 67 67 67 69 68 68 67 66 68 67 66 65 66 66 66 67 69 69 63 67 52 51 50 52 55 59 59 67 64 63 62 61 61 61 64 54 52 49 48 47 47 48 49 57 52 51 51 50 54 56 57 57 57 56 57 56 55 54 53 51 50 50 48 51 47 48 47 46 48 48 49
71 70 70 70 70 70 70 70 70 70 69 69 68 67 67 67 68 68 67 67 66 66 67 67 67 65 64 65 66 66 67 69 63 62 61 52 50 49 50 51 53 62 64 62 62 61 61 62 61 47 46 44 45 46 47 48 57 50 49 50 51 51 56 57 58 58 58 57 56 55 54 53 51 51 50 51 49 52 50 48 49 48 50 50 50
71 69 70 70 71 70 69 70 69 69 69 68 67 68 67 67 67 68 67 66 66 66 66 66 66 66 64 66 68 67 68 68 66 64 61 56 51 49 50 51 51 50 61 61 62 62 52 47 45 45 46 44 46 48 48 48 48 47 48 50 52 57 58 58 58 58 57 55 54 53 52 52 51 51 52 52 52 51 52 51 50 49 49 50 51
70 68 70 70 69 69 69 68 69 69 69 68 68 69 68 67 67 66 66 66 67 66 67 67 64 65 66 65 65 65 65 64 63 64 62 61 56 52 51 52 54 53 54 59 54 52 51 48 48 49 49 51 57 58 58 60 50 50 50 52 57 57 57 56 57 56 54 52 52 51 50 50 50 51 52 52 52 51 50 50 49 48 47 47 47
69 68 69 69 69 69 69 68 68 69 69 68 69 68 68 66 66 66 64 65 67 67 63 64 67 66 65 64 63 65 63 62 63 62 63 63 62 60 59 59 54 54 56 59 58 58 57 56 57 53 53 55 57 55 56 55 57 55 57 56 56 54 56 56 54 53 53 52 51 50 49 48 50 51 50 49 49 49 50 48 46 44 46 47 47
68 67 67 67 68 68 68 68 68 67 68 67 67 67 66 66 65 65 64 65 64 63 63 63 63 63 63 62 62 62 62 62 62 59 58 59 59 63 63 61 60 60 59 60 61 60 58 54 55 58 58 58 57 58 56 57 56 55 53 53 53 53 52 50 48 51 52 52 51 50 49 50 49 48 46 46 45 46 48 47 46 46 46 47 47
67 66 66 66 67 68 67 67 67 67 68 68 64 60 63 66 65 66 67 68 70 64 63 65 64 63 62 63 62 62 62 62 62 53 61 49 61 62 59 58 57 59 56 50 58 58 58 57 56 56 57 56 54 54 55 54 54 53 54 54 52 51 52 50 50 50 50 50 49 49 47 47 47 46 46 45 46 45 47 46 47 46 48 48 48
65 63 64 64 63 64 66 65 66 66 65 63 61 57 50 42 47 65 63 52 48 44 49 67 66 62 60 64 63 63 60 61 48 47 45 45 45 44 44 43 44 49 49 50 55 56 54 54 55 55 54 55 54 54 52 51 52 51 51 51 50 48 47 48 48 46 47 47 46 45 46 45 45 44 44 42 43 42 42 44 45 47 47 46 45
63 60 62 61 62 64 65 65 65 66 65 64 63 61 59 54 42 41 46 46 43 39 40 42 45 49 60 63 56 47 48 44 43 42 41 42 43 44 44 43 42 43 45 54 54 55 56 55 54 52 52 52 51 51 52 50 50 49 49 49 47 46 46 45 45 45 44 43 43 43 44 43 44 42 41 40 41 40 41 43 42 45 46 46 46
63 61 60 65 66 65 64 65 65 64 64 64 63 62 61 59 55 43 39 41 41 39 38 39 40 44 44 51 59 56 46 40 40 40 40 40 40 39 39 40 40 42 42 42 56 56 55 54 53 51 52 50 50 50 48 48 48 49 48 47 45 46 45 44 45 44 42 41 42 42 41 40 40 40 39 39 39 39 38 39 41 43 44 45 47
65 64 66 65 65 65 65 64 64 63 63 63 62 63 62 63 61 58 52 40 39 39 38 38 39 40 40 41 41 50 49 43 39 39 39 39 38 38 37 37 38 37 42 51 54 53 54 53 52 52 50 49 49 49 50 47 46 45 45 46 45 45 44 48 46 45 43 42 41 40 39 39 38 37 37 37 37 38 37 38 40 41 43 44 45
65 65 64 64 64 64 63 63 62 63 63 64 63 63 63 62 61 61 59 58 56 49 42 38 38 38 37 37 40 40 40 39 39 39 39 39 38 38 40 48 38 38 44 55 52 51 51 50 49 49 49 49 47 47 47 48 48 46 46 46 44 43 45 47 46 43 42 38 38 38 38 36 35 36 37 37 36 37 37 38 38 39 40 43 45
65 63 64 63 62 62 62 62 62 63 63 63 63 63 63 63 62 61 59 58 58 57 55 52 42 38 47 41 38 38 38 39 39 38 39 39 39 39 42 53 53 50 51 52 53 51 50 49 49 49 49 49 48 47 47 48 47 46 44 45 44 42 41 41 39 40 41 40 38 37 36 37 36 37 35 35 35 36 36 36 35 38 39 42 45
63 62 61 61 61 61 61 63 63 63 63 63 63 61 61 62 61 59 58 58 58 57 55 55 54 44 40 38 37 37 37 38 38 38 38 38 39 39 51 53 51 51 51 52 51 50 50 50 49 50 50 49 49 48 47 46 46 44 44 44 41 40 38 38 40 42 42 39 36 38 36 38 37 35 35 35 36 35 35 36 34 36 38 40 43
58 58 59 60 60 63 63 64 64 64 62 62 63 63 63 63 62 62 62 61 60 58 58 56 54 52 49 49 44 38 38 38 38 38 38 38 37 45 52 51 49 50 50 49 50 50 50 50 50 50 49 48 47 46 46 45 45 47 44 44 44 40 40 40 37 37 37 36 37 38 38 36 35 37 34 36 35 35 35 35 35 36 37 40 43
58 57 58 60 61 64 64 64 64 63 63 63 65 64 62 62 61 59 59 60 59 58 57 57 55 56 55 55 51 51 49 40 37 37 37 37 44 50 52 51 50 49 49 49 50 49 49 50 49 48 49 46 46 46 43 44 44 43 41 43 43 43 38 35 40 46 46 40 36 36 35 35 35 34 34 34 36 35 34 34 35 36 37 39 43
61 61 61 62 61 62 63 63 63 63 61 63 62 62 60 59 59 58 58 57 56 55 56 56 56 56 56 55 53 53 51 50 50 51 49 49 50 52 50 49 50 49 49 49 50 49 48 48 48 47 47 46 45 46 43 43 43 42 42 40 38 39 40 39 38 39 36 35 35 34 33 35 34 34 35 34 34 34 35 36 37 36 36 36 39
60 59 60 61 60 61 62 62 62 63 62 61 59 59 58 58 59 57 57 57 56 56 56 54 54 56 57 57 55 54 52 51 52 51 51 50 50 51 50 49 49 49 50 50 49 49 49 47 47 46 47 47 45 44 43 43 42 39 40 38 39 39 39 37 33 34 35 36 35 34 34 34 34 35 35 33 35 35 37 38 36 36 36 36 37
59 60 61 60 58 60 61 60 60 60 60 60 59 59 58 58 58 56 55 55 54 54 54 54 55 56 56 55 47 49 54 52 51 51 51 50 50 50 50 49 49 49 48 48 49 48 47 47 46 45 45 45 45 42 41 39 38 36 36 38 37 35 32 34 35 35 36 36 34 34 34 34 33 33 33 34 36 37 37 36 36 35 35 34 37
59 60 59 60 60 58 57 57 60 61 61 60 59 58 56 55 54 54 54 54 54 53 53 53 55 57 49 43 44 43 53 54 53 52 52 51 50 50 50 50 49 50 49 47 48 48 47 48 45 45 44 45 42 42 40 38 36 35 35 37 35 33 31 31 35 37 36 35 35 35 35 35 35 35 35 36 34 35 35 35 35 35 34 36 40
61 61 60 59 57 57 58 59 59 59 59 58 56 56 56 54 54 55 54 54 54 53 54 55 55 57 53 46 48 45 53 53 52 51 51 50 49 49 48 48 48 47 48 47 46 47 47 45 44 43 43 43 43 41 39 37 37 35 34 35 33 32 33 33 33 34 34 35 34 35 35 34 33 32 33 34 34 35 36 36 36 35 35 38 42
61 60 59 57 60 60 60 58 58 58 58 57 56 56 55 55 54 54 54 54 54 53 53 52 53 54 54 49 49 51 52 50 51 49 50 48 47 46 45 45 45 46 46 45 44 44 44 43 42 41 42 40 41 42 38 34 33 33 33 33 32 34 32 34 35 35 34 33 33 33 33 33 34 32 32 32 34 36 36 36 36 36 36 39 41
59 59 57 58 59 58 58 59 57 58 57 55 54 55 55 54 54 54 54 53 53 53 53 51 51 51 52 53 52 52 51 49 50 48 47 45 45 44 43 45 46 46 45 45 44 44 43 43 43 43 42 41 38 37 33 30 31 31 29 31 35 32 34 36 36 36 35 37 34 34 32 31 32 32 31 31 35 37 34 36 36 39 37 39 40
59 58 57 58 58 58 58 58 57 56 55 53 53 54 54 54 54 54 53 53 52 52 51 51 50 51 51 51 51 50 49 48 45 44 44 42 43 44 45 44 47 47 44 44 45 45 43 44 42 41 41 39 37 32 28 29 26 28 30 31 30 32 33 34 36 36 36 38 35 33 34 33 33 33 34 33 34 35 36 38 38 36 37 38 39
58 57 56 58 57 57 57 57 54 54 54 53 54 53 53 53 52 52 52 52 52 52 50 51 49 46 47 47 46 47 46 45 44 42 46 45 45 45 46 46 44 46 44 45 45 43 43 43 41 41 40 38 36 34 29 26 25 24 27 26 28 29 31 36 38 38 37 38 38 36 35 34 35 36 33 33 35 36 37 37 36 37 37 36 37
57 55 57 57 56 54 55 54 54 53 52 52 52 52 51 52 51 51 49 48 47 46 44 45 45 44 45 45 46 45 45 44 45 43 42 45 44 44 46 46 46 44 45 45 43 42 42 42 42 41 41 39 36 33 33 30 28 28 26 26 28 32 31 33 34 37 41 40 37 37 37 36 36 35 34 36 37 36 37 35 35 34 36 35 35
56 55 56 55 54 54 53 52 52 50 49 49 49 47 47 46 46 45 45 45 45 45 44 45 44 44 44 44 44 44 46 45 45 44 44 43 45 47 45 46 46 44 43 42 42 42 43 42 42 42 40 40 37 34 35 33 31 31 31 31 35 34 32 31 31 35 35 36 37 38 38 37 36 36 36 37 37 36 35 36 36 36 35 36 34
54 54 54 53 52 51 51 50 48 47 48 47 45 45 45 45 44 44 46 45 44 45 45 45 45 45 44 45 45 44 44 44 44 44 44 44 44 45 46 46 46 45 43 43 42 42 42 43 43 42 41 40 37 36 33 33 34 32 34 34 33 30 30 31 32 33 36 34 36 37 35 36 37 36 35 36 37 37 37 35 36 36 34 34 34
54 53 53 51 50 49 49 48 47 47 47 47 46 46 46 45 45 45 45 45 45 44 44 45 43 42 43 43 45 45 46 47 47 46 44 45 46 46 45 45 45 45 44 44 43 42 43 42 41 41 40 39 37 35 35 34 35 36 34 32 29 30 32 33 31 33 35 35 36 35 35 36 37 37 36 35 33 34 35 36 35 35 35 31 33